Regional Weather Roundup
Issued by NWS Little Rock, AR

Home | Current Version | Previous Version | Graphics & Text | Print | Product List | Glossary On
Versions: 1 2 3 4 5 6 7 8 9 10 11 12 13 14 15 16 17 18 19 20 21 22 23 24 25 26 27 28 29 30 31 32 33 34 35 36 37 38 39 40 41 42 43
000
ASUS44 KLZK 312305
RWRLZK

WEATHER ROUNDUP FOR ARKANSAS
NATIONAL WEATHER SERVICE LITTLE ROCK AR
600 PM CDT FRI JUL 31 2015

NOTE: "FAIR" INDICATES FEW OR NO CLOUDS BELOW 12,000 FEET WITH NO
SIGNIFICANT WEATHER AND/OR OBSTRUCTIONS TO VISIBILITY.

ARZ001-003-010-029-010000-
NORTHWEST ARKANSAS

CITY           SKY/WX    TMP DP  RH WIND       PRES   REMARKS
FAYETTEVILLE   SUNNY     86  59  39 S6        30.09F HX  85
FORT SMITH     SUNNY     91  53  27 E7        30.03F HX  88
HARRISON       SUNNY     87  58  37 CALM      30.09F HX  86
BENTONVILLE    SUNNY     88  59  37 SW3       30.11F HX  87
ROGERS         SUNNY     87  62  43 SE6       30.11F HX  87
SILOAM SPGS    MOSUNNY   88  57  35 S5        30.09S HX  86
HIGHFILL       MOSUNNY   87  57  35 SW6       30.10F HX  86
SPRINGDALE     MOSUNNY   88  55  33 S7        30.12F HX  86
$$

ARZ004-005-016-010000-
NORTH CENTRAL ARKANSAS

CITY           SKY/WX    TMP DP  RH WIND       PRES   REMARKS
BATESVILLE     SUNNY     90  66  45 W3        30.04F HX  92
FLIPPIN        SUNNY     91  61  35 NE3       30.06F HX  91
MTN HOME       SUNNY     88  63  43 CALM      30.07F HX  89
$$

ARZ040-041-010000-
WEST CENTRAL ARKANSAS

CITY           SKY/WX    TMP DP  RH WIND       PRES   REMARKS
MENA           SUNNY     93  55  27 E6        30.07F HX  91
MOUNT IDA      SUNNY     93  59  31 VRB3      30.02F HX  92
$$

ARZ009-017-025-026-028-010000-
NORTHEAST ARKANSAS

CITY           SKY/WX    TMP DP  RH WIND       PRES   REMARKS
JONESBORO      SUNNY     88  64  44 N7        30.03F HX  89
NEWPORT        SUNNY     89  66  46 N6        30.04F HX  91
WALNUT RIDGE   SUNNY     91  64  40 N5        30.02F HX  93
BLYTHEVILLE    SUNNY     89  70  53 E3        30.03F HX  94
$$

ARZ022-023-033-042-044-010000-
CENTRAL ARKANSAS

CITY           SKY/WX    TMP DP  RH WIND       PRES   REMARKS
LITTLE ROCK    MOSUNNY   93  59  31 E9        30.02F HX  92
N LITTLE ROCK  MOSUNNY   94  65  37 E9        30.02F HX  96
JACKSONVILLE   SUNNY     93  64  38 SE10      30.02F HX  95
SEARCY         SUNNY     91  65  41 N7        30.04F HX  93
HOT SPRINGS    SUNNY     94  55  26 E10       30.03F HX  92
RUSSELLVILLE   SUNNY     93  61  34 VRB5      30.02F HX  93
CLINTON        FAIR      90  68  48 CALM      30.05F HX  93
$$

ARZ036-010000-
EAST ARKANSAS

CITY           SKY/WX    TMP DP  RH WIND       PRES   REMARKS
WEST MEMPHIS   SUNNY     90  65  43 N10       30.01F HX  92
$$

ARZ050-053-066-070-073-010000-
SOUTHWEST ARKANSAS

CITY           SKY/WX    TMP DP  RH WIND       PRES   REMARKS
ARKADELPHIA    FAIR      95  60  30 NE8       30.02F HX  95
CAMDEN         SUNNY     93  57  29 NE7       30.00F HX  92
TEXARKANA      SUNNY     92  60  34 VRB5      30.02F HX  91
EL DORADO      LGT RAIN  94  59  31 N7        30.00F HX  93
DE QUEEN       SUNNY     92  63  38 SE7       30.01F HX  93
$$

ARZ056-057-069-010000-
SOUTHEAST ARKANSAS

CITY           SKY/WX    TMP DP  RH WIND       PRES   REMARKS
PINE BLUFF     SUNNY     91  64  40 N12       30.02F HX  92
STUTTGART      SUNNY     90  63  40 MISG      30.03F HX  90
MONTICELLO     SUNNY     92  65  40 NE5       30.01F HX  94

$$





USA.gov is the U.S. government's official web portal to all federal, state and local government web resources and services.